Location: Colonia Mina de C?rbuni
(46.1667°N, 22.7167°E)
Time: 06:54:49
(UTC+00:00)

Vanguard 2 - Pass Details

Date: 19 April 2024
Orbit: 552 x 2914 km, 32.9° (Epoch: 27 May)

Event Time Altitude Azimuth Distance (km) Brightness Sun altitude
Rises 00:53:14 0° 233° (SW) 6,074 - -24.0°
Reaches altitude 10° 00:57:11 10° 227° (SW) 5,296 - -23.6°
Exits shadow 01:03:52 29° 211° (SSW) 4,201 10.6 -22.8°
Maximum altitude 01:12:23 45° 163° (SSE) 3,610 10.6 -21.8°
Drops below altitude 10° 01:27:53 10° 98° (E) 5,407 12.3 -19.9°
Sets 01:31:57 0° 93° (E) 6,208 12.9 -19.3°
